This demonstration page uses our WeatherBlox Daily Observations layout. Learn more.

Left ArrowRight Arrow

47.50024, -111.30081

Hourly Observations for January 20, 2020

Temp ( °F °C ) Dew Point ( °F °C ) Humidity (%) Winds ( mph kmh ) Pressure ( in mb ) Visibility ( mi km ) Precip ( " mm )
12:53 am 00:53 Clear 36 2.2 17 -8.3 46 46 SSW 17 28 30.26 1025 10 16 0.00 0.00
1:53 am 01:53 Clear 36 2.2 17 -8.3 46 46 SSW 14 22 30.23 1024 10 16 0.00 0.00
2:53 am 02:53 Clear 38 3.3 17 -8.3 43 43 SSW 16 26 30.21 1023 10 16 0.00 0.00
3:53 am 03:53 Clear 35 1.7 17 -8.3 48 48 SSW 20 31 30.22 1023 10 16 0.00 0.00
4:53 am 04:53 Clear 35 1.7 17 -8.3 48 48 SSW 17 28 30.22 1023 10 16 0.00 0.00
5:53 am 05:53 Clear 36 2.2 17 -8.3 46 46 SSW 16 26 30.22 1023 10 16 0.00 0.00
6:53 am 06:53 Clear 33 0.6 17 -8.3 52 52 SW 14 22 30.21 1023 10 16 0.00 0.00
7:53 am 07:53 Clear 34 1.1 16 -8.9 48 48 SW 10 17 30.20 1023 10 16 0.00 0.00
8:53 am 08:53 Sunny 38 3.3 17 -8.3 43 43 SSW 17 28 30.17 1022 10 16 0.00 0.00
9:53 am 09:53 Sunny 40 4.4 17 -8.3 40 40 SW 15 24 30.16 1021 10 16 0.00 0.00
10:53 am 10:53 Sunny 44 6.7 17 -8.3 34 34 SSW 13 20 30.13 1020 10 16 0.00 0.00
11:53 am 11:53 Sunny 48 8.9 18 -7.8 30 30 SW 17 28 30.07 1018 10 16 0.00 0.00
12:53 pm 12:53 Sunny 50 10 17 -8.3 27 27 SSW 22 35 30.03 1017 10 16 0.00 0.00
1:53 pm 13:53 Sunny 51 10.6 17 -8.3 26 26 SW 16 26 30.01 1016 10 16 0.00 0.00
2:53 pm 14:53 Sunny 49 9.4 17 -8.3 28 28 SSW 22 35 29.98 1015 10 16 0.00 0.00
3:53 pm 15:53 Sunny 47 8.3 17 -8.3 30 30 SW 17 28 29.99 1016 10 16 0.00 0.00
4:53 pm 16:53 Sunny 46 7.8 17 -8.3 31 31 SW 14 22 29.97 1015 10 16 0.00 0.00
5:53 pm 17:53 Mostly Clear 45 7.2 17 -8.3 33 33 SW 15 24 29.97 1015 10 16 0.00 0.00
6:53 pm 18:53 Partly Cloudy 45 7.2 16 -8.9 31 31 SW 21 33 29.96 1015 10 16 0.00 0.00
7:53 pm 19:53 Mostly Clear 44 6.7 16 -8.9 32 32 SW 18 30 29.96 1015 10 16 0.00 0.00
8:53 pm 20:53 Mostly Cloudy 40 4.4 16 -8.9 38 38 SSW 16 26 29.95 1014 10 16 0.00 0.00
9:53 pm 21:53 Clear 43 6.1 16 -8.9 34 34 SSW 16 26 29.94 1014 10 16 0.00 0.00
10:53 pm 22:53 Clear 42 5.6 16 -8.9 35 35 SSW 16 26 29.92 1013 10 16 0.00 0.00
11:53 pm 23:53 Clear 40 4.4 17 -8.3 40 40 SW 17 28 29.91 1013 10 16 0.00 0.00

Powered by AerisWeather